| time (UTC) | temp C | wind direction | speed KPH | gust KPH | rain 1hr cm | rain 24hr cm | rain mn cm | humidity % | barometer mb |
| 20260901200530 | 21 | 46 | 1.6 | 4.8 | 0.00 | 0.00 | 0.00 | 56 | 1016.6 |
| 20260901195530 | 21 | 37 | 1.6 | 3.2 | 0.00 | 0.00 | 0.00 | 56 | 1016.7 |
| 20260901194530 | 21 | 47 | 0.0 | 3.2 | 0.00 | 0.00 | 0.00 | 54 | 1016.6 |
| 20260901193530 | 22 | 34 | 1.6 | 3.2 | 0.00 | 0.00 | 0.00 | 53 | 1016.6 |
| 20260901192530 | 22 | 38 | 0.0 | 3.2 | 0.00 | 0.00 | 0.00 | 51 | 1016.7 |
| 20260901191530 | 22 | 14 | 0.0 | 4.8 | 0.00 | 0.00 | 0.00 | 52 | 1016.8 |
| 20260901190531 | 23 | 40 | 1.6 | 3.2 | 0.00 | 0.00 | 0.00 | 52 | 1016.9 |
| 20260901185531 | 22 | 7 | 1.6 | 3.2 | 0.00 | 0.00 | 0.00 | 47 | 1016.9 |
| 20260901184531 | 21 | 265 | 1.6 | 3.2 | 0.00 | 0.00 | 0.00 | 52 | 1016.9 |
| 20260901183551 | 20 | 30 | 0.0 | 1.6 | 0.00 | 0.00 | 0.00 | 56 | 1016.9 |
| 20260901182531 | 20 | 29 | 0.0 | 1.6 | 0.00 | 0.00 | 0.00 | 57 | 1017.0 |
| 20260901181532 | 20 | 323 | 1.6 | 3.2 | 0.00 | 0.00 | 0.00 | 56 | 1016.9 |
| 20260901180531 | 20 | 294 | 0.0 | 1.6 | 0.00 | 0.00 | 0.00 | 57 | 1016.9 |
| 20260901175516 | 20 | 333 | 0.0 | 1.6 | 0.00 | 0.00 | 0.00 | 59 | 1016.9 |
| 20260901174516 | 19 | 357 | 0.0 | 1.6 | 0.00 | 0.00 | 0.00 | 57 | 1016.8 |
| 20260901173517 | 19 | 359 | 0.0 | 3.2 | 0.00 | 0.00 | 0.00 | 59 | 1016.8 |
| 20260901172552 | 19 | 358 | 1.6 | 3.2 | 0.00 | 0.00 | 0.00 | 59 | 1016.6 |
| 20260901171532 | 19 | 19 | 1.6 | 3.2 | 0.00 | 0.00 | 0.00 | 59 | 1016.5 |
| 20260901170552 | 18 | 318 | 0.0 | 1.6 | 0.00 | 0.00 | 0.00 | 60 | 1016.5 |
| 20260901165517 | 18 | 41 | 0.0 | 3.2 | 0.00 | 0.00 | 0.00 | 60 | 1016.4 |
| 20260901164517 | 18 | 343 | 0.0 | 1.6 | 0.00 | 0.00 | 0.00 | 60 | 1016.5 |
| 20260901163518 | 18 | 16 | 0.0 | 1.6 | 0.00 | 0.00 | 0.00 | 60 | 1016.4 |
| 20260901162518 | 18 | 317 | 1.6 | 3.2 | 0.00 | 0.00 | 0.00 | 61 | 1016.3 |
| 20260901161518 | 18 | 342 | 1.6 | 3.2 | 0.00 | 0.00 | 0.00 | 62 | 1016.3 |
| 20260901160518 | 18 | 307 | 0.0 | 1.6 | 0.00 | 0.00 | 0.00 | 63 | 1016.4 |
| 20260901155538 | 17 | 323 | 1.6 | 4.8 | 0.00 | 0.00 | 0.00 | 64 | 1016.4 |
| 20260901154519 | 17 | 322 | 1.6 | 4.8 | 0.00 | 0.00 | 0.00 | 66 | 1016.2 |
| 20260901153518 | 17 | 269 | 0.0 | 1.6 | 0.00 | 0.00 | 0.00 | 67 | 1016.1 |
| 20260901152519 | 17 | 356 | 1.6 | 3.2 | 0.00 | 0.00 | 0.00 | 67 | 1016.0 |
| 20260901151519 | 17 | 327 | 0.0 | 3.2 | 0.00 | 0.00 | 0.00 | 69 | 1015.9 |
| 20260901150539 | 16 | 323 | 1.6 | 1.6 | 0.00 | 0.00 | 0.00 | 70 | 1015.9 |
| 20260901145520 | 16 | 334 | 1.6 | 1.6 | 0.00 | 0.00 | 0.00 | 72 | 1015.8 |
| 20260901144519 | 16 | 317 | 1.6 | 3.2 | 0.00 | 0.00 | 0.00 | 72 | 1015.7 |
| 20260901143539 | 16 | 328 | 1.6 | 1.6 | 0.00 | 0.00 | 0.00 | 73 | 1015.5 |
| 20260901142519 | 15 | 348 | 1.6 | 4.8 | 0.00 | 0.00 | 0.00 | 73 | 1015.3 |
| 20260901141519 | 15 | 313 | 1.6 | 1.6 | 0.00 | 0.00 | 0.00 | 74 | 1015.2 |
| 20260901140520 | 15 | 340 | 1.6 | 1.6 | 0.00 | 0.00 | 0.00 | 74 | 1015.1 |
| 20260901135600 | 15 | 333 | 1.6 | 3.2 | 0.00 | 0.00 | 0.00 | 73 | 1015.0 |
| 20260901134520 | 15 | 335 | 0.0 | 1.6 | 0.00 | 0.00 | 0.00 | 73 | 1014.9 |
| 20260901133520 | 15 | 319 | 0.0 | 1.6 | 0.00 | 0.00 | 0.00 | 73 | 1014.8 |
| 20260901132520 | 15 | 290 | 1.6 | 1.6 | 0.00 | 0.00 | 0.00 | 73 | 1014.8 |
| 20260901131520 | 15 | 315 | 1.6 | 1.6 | 0.00 | 0.00 | 0.00 | 73 | 1014.7 |
| 20260901130541 | 16 | 309 | 1.6 | 3.2 | 0.00 | 0.00 | 0.00 | 73 | 1014.7 |
| 20260901125540 | 16 | 329 | 1.6 | 1.6 | 0.00 | 0.00 | 0.00 | 73 | 1014.6 |
| 20260901124521 | 16 | 309 | 0.0 | 1.6 | 0.00 | 0.00 | 0.00 | 73 | 1014.5 |
| 20260901123521 | 16 | 315 | 1.6 | 1.6 | 0.00 | 0.00 | 0.00 | 73 | 1014.5 |
| 20260901122521 | 15 | 326 | 1.6 | 1.6 | 0.00 | 0.00 | 0.00 | 73 | 1014.4 |
| 20260901121521 | 15 | 296 | 1.6 | 1.6 | 0.00 | 0.00 | 0.00 | 73 | 1014.4 |
| 20260901120522 | 15 | 282 | 1.6 | 3.2 | 0.00 | 0.00 | 0.00 | 74 | 1014.5 |
| 20260901115521 | 15 | 326 | 1.6 | 1.6 | 0.00 | 0.00 | 0.00 | 75 | 1014.5 |
| 20260901114522 | 15 | 323 | 1.6 | 1.6 | 0.00 | 0.00 | 0.00 | 75 | 1014.5 |
| 20260901113522 | 15 | 328 | 1.6 | 3.2 | 0.00 | 0.00 | 0.00 | 76 | 1014.6 |
| 20260901112521 | 15 | 317 | 1.6 | 3.2 | 0.00 | 0.00 | 0.00 | 77 | 1014.7 |
| 20260901111522 | 15 | 332 | 1.6 | 1.6 | 0.00 | 0.00 | 0.00 | 77 | 1014.7 |
| 20260901110522 | 15 | 294 | 1.6 | 1.6 | 0.00 | 0.00 | 0.00 | 78 | 1014.8 |
| 20260901105542 | 15 | 297 | 1.6 | 3.2 | 0.00 | 0.00 | 0.00 | 79 | 1014.8 |
| 20260901104522 | 15 | 317 | 1.6 | 1.6 | 0.00 | 0.00 | 0.00 | 79 | 1014.7 |
| 20260901103542 | 15 | 308 | 1.6 | 3.2 | 0.00 | 0.00 | 0.00 | 80 | 1014.7 |
| 20260901102523 | 15 | 297 | 1.6 | 1.6 | 0.00 | 0.00 | 0.00 | 80 | 1014.6 |
| 20260901101523 | 15 | 302 | 0.0 | 1.6 | 0.00 | 0.00 | 0.00 | 81 | 1014.6 |
| 20260901100523 | 14 | 338 | 1.6 | 3.2 | 0.00 | 0.00 | 0.00 | 83 | 1014.5 |
| 20260901095543 | 14 | 299 | 1.6 | 1.6 | 0.00 | 0.00 | 0.00 | 83 | 1014.5 |
| 20260901094523 | 14 | 306 | 1.6 | 1.6 | 0.00 | 0.00 | 0.00 | 84 | 1014.5 |
| 20260901093523 | 14 | 298 | 1.6 | 1.6 | 0.00 | 0.00 | 0.00 | 84 | 1014.5 |
| 20260901092524 | 14 | 340 | 1.6 | 1.6 | 0.00 | 0.00 | 0.00 | 85 | 1014.5 |
| 20260901091524 | 13 | 337 | 1.6 | 3.2 | 0.00 | 0.00 | 0.00 | 85 | 1014.6 |
| 20260901090523 | 13 | 323 | 1.6 | 3.2 | 0.00 | 0.00 | 0.00 | 86 | 1014.6 |
| 20260901085524 | 13 | 329 | 1.6 | 1.6 | 0.00 | 0.00 | 0.00 | 87 | 1014.5 |
| 20260901084523 | 13 | 324 | 1.6 | 1.6 | 0.00 | 0.00 | 0.00 | 87 | 1014.6 |
| 20260901083524 | 13 | 321 | 1.6 | 3.2 | 0.00 | 0.00 | 0.00 | 88 | 1014.5 |
| 20260901082524 | 13 | 321 | 1.6 | 1.6 | 0.00 | 0.00 | 0.00 | 89 | 1014.5 |
| 20260901081524 | 13 | 331 | 1.6 | 3.2 | 0.00 | 0.00 | 0.00 | 89 | 1014.5 |
| 20260901080524 | 13 | 327 | 1.6 | 3.2 | 0.00 | 0.00 | 0.00 | 90 | 1014.5 |
| 20260901075524 | 12 | 332 | 1.6 | 3.2 | 0.00 | 0.00 | 0.00 | 90 | 1014.5 |
| 20260901074525 | 12 | 317 | 1.6 | 1.6 | 0.00 | 0.00 | 0.00 | 91 | 1014.5 |
| 20260901073525 | 12 | 320 | 1.6 | 3.2 | 0.00 | 0.00 | 0.00 | 91 | 1014.5 |
| 20260901072605 | 12 | 307 | 1.6 | 1.6 | 0.00 | 0.00 | 0.00 | 91 | 1014.5 |
| 20260901071525 | 12 | 304 | 1.6 | 1.6 | 0.00 | 0.00 | 0.00 | 91 | 1014.5 |
| 20260901070525 | 12 | 310 | 1.6 | 3.2 | 0.00 | 0.00 | 0.00 | 91 | 1014.5 |
| 20260901065525 | 12 | 301 | 1.6 | 3.2 | 0.00 | 0.00 | 0.00 | 91 | 1014.5 |
| 20260901064525 | 12 | 314 | 1.6 | 1.6 | 0.00 | 0.00 | 0.00 | 90 | 1014.6 |
| 20260901063525 | 12 | 293 | 1.6 | 1.6 | 0.00 | 0.00 | 0.00 | 90 | 1014.6 |
| 20260901062526 | 12 | 301 | 1.6 | 1.6 | 0.00 | 0.00 | 0.00 | 89 | 1014.5 |
| 20260901061525 | 12 | 304 | 1.6 | 1.6 | 0.00 | 0.00 | 0.00 | 89 | 1014.6 |
| 20260901060526 | 12 | 315 | 1.6 | 3.2 | 0.00 | 0.00 | 0.00 | 89 | 1014.6 |
| 20260901055546 | 12 | 287 | 0.0 | 1.6 | 0.00 | 0.00 | 0.00 | 88 | 1014.8 |
| 20260901054526 | 12 | 323 | 1.6 | 1.6 | 0.00 | 0.00 | 0.00 | 88 | 1014.9 |
| 20260901053527 | 12 | 284 | 1.6 | 3.2 | 0.00 | 0.00 | 0.00 | 88 | 1014.8 |
| 20260901052526 | 12 | 311 | 1.6 | 3.2 | 0.00 | 0.00 | 0.00 | 87 | 1014.8 |
| 20260901051526 | 13 | 289 | 1.6 | 1.6 | 0.00 | 0.00 | 0.00 | 86 | 1014.6 |
| 20260901050527 | 13 | 278 | 1.6 | 1.6 | 0.00 | 0.00 | 0.00 | 86 | 1014.5 |
| 20260901045527 | 13 | 312 | 1.6 | 3.2 | 0.00 | 0.00 | 0.00 | 86 | 1014.4 |
| 20260901044527 | 13 | 270 | 1.6 | 1.6 | 0.00 | 0.00 | 0.00 | 85 | 1014.3 |
| 20260901043527 | 13 | 317 | 1.6 | 1.6 | 0.00 | 0.00 | 0.00 | 84 | 1014.3 |
| 20260901042529 | 13 | 316 | 1.6 | 3.2 | 0.00 | 0.00 | 0.00 | 83 | 1014.2 |
| 20260901041528 | 13 | 336 | 1.6 | 3.2 | 0.00 | 0.00 | 0.00 | 82 | 1014.3 |
| 20260901040548 | 14 | 300 | 1.6 | 1.6 | 0.00 | 0.00 | 0.00 | 81 | 1014.2 |
| 20260901035528 | 14 | 298 | 1.6 | 1.6 | 0.00 | 0.00 | 0.00 | 80 | 1014.1 |
| 20260901034528 | 15 | 304 | 1.6 | 3.2 | 0.00 | 0.00 | 0.00 | 78 | 1014.0 |
| 20260901033528 | 15 | 309 | 1.6 | 1.6 | 0.00 | 0.00 | 0.00 | 77 | 1013.9 |
| 20260901032548 | 15 | 288 | 1.6 | 1.6 | 0.00 | 0.00 | 0.00 | 76 | 1013.8 |
| 20260901031528 | 16 | 313 | 0.0 | 1.6 | 0.00 | 0.00 | 0.00 | 75 | 1013.7 |
| 20260901030528 | 16 | 347 | 3.2 | 4.8 | 0.00 | 0.00 | 0.00 | 75 | 1013.6 |
| 20260901025548 | 16 | 328 | 1.6 | 3.2 | 0.00 | 0.00 | 0.00 | 73 | 1013.5 |
| 20260901024549 | 16 | 313 | 1.6 | 3.2 | 0.00 | 0.00 | 0.00 | 72 | 1013.6 |
| 20260901023529 | 17 | 343 | 1.6 | 3.2 | 0.00 | 0.00 | 0.00 | 71 | 1013.6 |
| 20260901022529 | 17 | 312 | 1.6 | 3.2 | 0.00 | 0.00 | 0.00 | 71 | 1013.5 |
| 20260901021529 | 17 | 336 | 1.6 | 3.2 | 0.00 | 0.00 | 0.00 | 70 | 1013.4 |
| 20260901020549 | 17 | 341 | 1.6 | 3.2 | 0.00 | 0.00 | 0.00 | 69 | 1013.4 |
| 20260901015529 | 17 | 2 | 1.6 | 4.8 | 0.00 | 0.00 | 0.00 | 68 | 1013.4 |
| 20260901014529 | 18 | 5 | 1.6 | 4.8 | 0.00 | 0.00 | 0.00 | 67 | 1013.4 |
| 20260901013530 | 18 | 339 | 1.6 | 3.2 | 0.00 | 0.00 | 0.00 | 67 | 1013.4 |
| 20260901012530 | 19 | 349 | 3.2 | 6.4 | 0.00 | 0.00 | 0.00 | 65 | 1013.4 |
| 20260901011530 | 20 | 4 | 3.2 | 6.4 | 0.00 | 0.00 | 0.00 | 64 | 1013.4 |
| 20260901010530 | 20 | 357 | 1.6 | 4.8 | 0.00 | 0.00 | 0.00 | 62 | 1013.4 |
| 20260901005521 | 20 | 356 | 3.2 | 9.7 | 0.00 | 0.00 | 0.00 | 62 | 1013.4 |
| 20260901004521 | 20 | 329 | 3.2 | 9.7 | 0.00 | 0.00 | 0.00 | 64 | 1013.3 |
| 20260901003521 | 20 | 7 | 4.8 | 8.0 | 0.00 | 0.00 | 0.00 | 62 | 1013.3 |
| 20260901002521 | 20 | 14 | 3.2 | 11.3 | 0.00 | 0.00 | 0.00 | 61 | 1013.3 |
| 20260901001530 | 21 | 24 | 3.2 | 6.4 | 0.00 | 0.00 | 0.00 | 59 | 1013.3 |
| 20260901000541 | 21 | 327 | 3.2 | 9.7 | 0.00 | 0.00 | 0.00 | 59 | 1013.3 |
| 20260831235531 | 20 | 337 | 3.2 | 6.4 | 0.00 | 0.00 | 0.00 | 60 | 1013.4 |
| 20260831234521 | 20 | 347 | 3.2 | 9.7 | 0.00 | 0.00 | 0.00 | 61 | 1013.3 |
| 20260831233522 | 21 | 11 | 3.2 | 9.7 | 0.00 | 0.00 | 0.00 | 60 | 1013.5 |
| 20260831232522 | 21 | 5 | 3.2 | 9.7 | 0.00 | 0.00 | 0.00 | 58 | 1013.5 |
| 20260831231531 | 21 | 360 | 3.2 | 8.0 | 0.00 | 0.00 | 0.00 | 58 | 1013.5 |
| 20260831230522 | 22 | 352 | 3.2 | 8.0 | 0.00 | 0.00 | 0.00 | 58 | 1013.5 |
| 20260831225531 | 22 | 341 | 3.2 | 6.4 | 0.00 | 0.00 | 0.00 | 56 | 1013.6 |
| 20260831224532 | 22 | 15 | 1.6 | 4.8 | 0.00 | 0.00 | 0.00 | 57 | 1013.7 |
| 20260831223522 | 22 | 356 | 3.2 | 9.7 | 0.00 | 0.00 | 0.00 | 58 | 1013.8 |
| 20260831222517 | 22 | 30 | 3.2 | 4.8 | 0.00 | 0.00 | 0.00 | 56 | 1013.9 |
| 20260831221517 | 22 | 319 | 3.2 | 6.4 | 0.00 | 0.00 | 0.00 | 57 | 1014.0 |
| 20260831220517 | 22 | 6 | 3.2 | 4.8 | 0.00 | 0.00 | 0.00 | 56 | 1014.2 |
| 20260831215537 | 22 | 10 | 1.6 | 4.8 | 0.00 | 0.00 | 0.00 | 57 | 1014.3 |
| 20260831214517 | 21 | 342 | 1.6 | 4.8 | 0.00 | 0.00 | 0.00 | 59 | 1014.3 |
| 20260831213517 | 21 | 5 | 3.2 | 8.0 | 0.00 | 0.00 | 0.00 | 61 | 1014.5 |
| 20260831212523 | 21 | 4 | 3.2 | 8.0 | 0.00 | 0.00 | 0.00 | 61 | 1014.5 |
| 20260831211517 | 22 | 351 | 3.2 | 11.3 | 0.00 | 0.00 | 0.00 | 59 | 1014.6 |
| 20260831210518 | 22 | 353 | 1.6 | 6.4 | 0.00 | 0.00 | 0.00 | 58 | 1014.7 |
| 20260831205518 | 21 | 7 | 1.6 | 4.8 | 0.00 | 0.00 | 0.00 | 59 | 1014.8 |
| 20260831204518 | 21 | 195 | 3.2 | 8.0 | 0.00 | 0.00 | 0.00 | 61 | 1014.7 |
| 20260831203538 | 20 | 17 | 3.2 | 6.4 | 0.00 | 0.00 | 0.00 | 63 | 1014.8 |
| 20260831202538 | 20 | 356 | 1.6 | 8.0 | 0.00 | 0.00 | 0.00 | 65 | 1014.9 |
| 20260831201516 | 19 | 343 | 1.6 | 9.7 | 0.00 | 0.00 | 0.00 | 67 | 1014.9 |